Flag for U.S.A. Weather past 2 weeks in Atlanta, Georgia, U.S.A.

Now
31 °F

Clear.


Feels Like: 27 °F
Forecast: 26 / 52 °F
Wind: 3 mph from Northwest

Location: Fulton County Airport-Brown Field

Current Time: Jan 31, 2015 at 4:23:34 AM

Latest Report: Jan 31, 2015 at 3:53 AM


Visibility: 10 mi

Pressure: 30.34 "Hg

Humidity: 61%

Dew point: 19 °F

Location of AtlantaLocation

Historic Weather in Atlanta — Graph

°F

Atlanta temperature yesterday

Maximum temperature yesterday: 55 °F (at 12:53 AM)
Minimum temperature yesterday: 36 °F (at 11:53 PM)
Average temperature yesterday: 43 °F

Past Weeks' High & Low Weather Summary

 TemperatureHumidityPressure
High66 °F (Jan 19, 3:53 PM)93% (Jan 17, 3:53 AM)30.36 "Hg (Jan 17, 3:53 AM)
Low27 °F (Jan 17, 5:53 AM)16% (Jan 19, 3:53 PM)29.73 "Hg (Jan 26, 1:53 AM)
Average43 °F62%30.08 "Hg
* Reported Jan 16 2:53 AM — Jan 31 2:53 AM, Atlanta, Weather by CustomWeather, © 2014

Note: Actual official high and low records may vary slightly from our data, if they occured in-between our weather recording intervals... More about our weather records

Advertising

Atlanta weather history for previous 24 hours

 ConditionsComfort  
Time TempWeatherWind HumidityBarometerVisibility
2:53 AM
Jan 31
33 °FClear.No wind56%30.34 "Hg10 mi
1:53 AM33 °FClear.No wind56%30.34 "Hg10 mi
12:53 AM34 °FClear.3 mph54%30.34 "Hg10 mi
11:53 PM
Jan 30
36 °FClear.5 mph50%30.36 "Hg10 mi
10:53 PM37 °FClear.6 mph48%30.36 "Hg10 mi
9:53 PM39 °FClear.7 mph45%30.36 "Hg10 mi
8:53 PM40 °FClear.9 mph45%30.35 "Hg10 mi
7:53 PM41 °FClear.8 mph45%30.34 "Hg10 mi
6:53 PM43 °FClear.6 mph40%30.33 "Hg10 mi
5:53 PM45 °FSunny.10 mph37%30.31 "Hg10 mi
4:53 PM48 °FSunny.13 mph33%30.30 "Hg10 mi
3:53 PM49 °FSunny.12 mph31%30.28 "Hg10 mi
2:53 PM49 °FSunny.15 mph35%30.27 "Hg10 mi
1:53 PM48 °FSunny.17 mph37%30.29 "Hg10 mi
12:53 PM47 °FSunny.15 mph39%30.31 "Hg10 mi
11:53 AM45 °FSunny.17 mph44%30.33 "Hg10 mi
10:53 AM43 °FScattered clouds.18 mph47%30.34 "Hg10 mi
9:53 AM41 °FPartly sunny.20 mph55%30.32 "Hg10 mi
8:53 AM40 °FPartly sunny.15 mph55%30.30 "Hg10 mi
7:53 AM38 °FScattered clouds.8 mph60%30.27 "Hg10 mi
6:53 AM38 °FClear.8 mph60%30.25 "Hg10 mi
5:53 AM39 °FClear.12 mph57%30.23 "Hg10 mi
4:53 AM41 °FPassing clouds.20 mph60%30.21 "Hg10 mi
Weather by CustomWeather, © 2014

See weather overviewHow to use our weather pages